Powrót do katalogu

STARLINK-11435

AktywnyŁącznośćVLEO
NORAD 62891·PAYLOAD·🇺🇸 United States

Wystrzelony Feb 4, 2025 z Cape Canaveral Space Force Station

Loading…

Następne Przeloty (najbliższe 24 godziny)

TLE

ŚwieżeSource: CelesTrak SupGP

Epoka: Sep 15, 2026, 02:12 UTC

1 62891C 25024N   26258.09215278  .00110090  00000+0  85457-3 0  2586
2 62891  43.0003 120.1639 0001678 275.3998 335.8899 15.70797667    16

Śledź STARLINK-11435 w czasie rzeczywistym z AllMySat

Download on the App Store